DateTimeUTC,F1_A11,F1_S11,BsB_S11,BsG_S11,BsR_S11,BbsB_S11,BbsG_S11,BbsR_S11,BaB_A11,BaG_A11,BaR_A11,Tu_S11,T_S11,Uu_S11,U_S11,P_S11,T1_A11
2021-03-27T12:00:00Z,00000200,21000000,,,,,,,0000.05,-000.08,-000.29,16.6,24.0,,00.0,0636.2,30.9
2021-03-27T12:01:00Z,00000200,21000000,,,,,,,0000.13,0000.13,0000.16,16.6,24.0,,00.0,0636.2,30.9
2021-03-27T12:02:00Z,00000200,21000000,,,,,,,-000.33,-000.08,-000.23,16.5,24.0,,00.0,0636.1,30.9
2021-03-27T12:03:00Z,00000200,61000000,,,,,,,0001.59,0001.20,0000.91,16.5,24.0,,00.0,0636.2,30.8
2021-03-27T12:04:00Z,00000200,41000000,0002.48,0001.56,0001.11,0000.20,0000.21,0000.09,0001.56,0001.42,0001.67,16.5,23.7,,00.0,0637.0,30.8
2021-03-27T12:05:00Z,00000200,01000000,0002.23,0001.78,0000.96,-000.21,0000.25,0000.26,0001.63,0001.65,0000.93,16.5,23.6,,00.0,0637.1,30.8
2021-03-27T12:06:00Z,00000200,01000000,0002.82,0001.71,0001.18,0000.82,0000.45,0000.20,0001.55,0001.47,0000.92,16.5,23.5,,00.0,0637.1,30.9
2021-03-27T12:07:00Z,00000200,01000000,0002.45,0001.97,0001.03,0000.61,0000.33,0000.22,0001.51,0001.50,0001.37,16.5,23.5,,00.0,0637.1,30.9
2021-03-27T12:08:00Z,00000200,01000000,0002.97,0001.72,0000.69,0000.08,0000.18,0000.28,0002.19,0001.51,0001.23,16.6,23.6,,00.0,0637.1,30.9
2021-03-27T12:09:00Z,00000200,01000000,0002.54,0001.89,0001.13,0000.46,0000.32,0000.17,0000.87,0001.66,0001.24,16.7,23.6,,00.0,0637.1,30.9
2021-03-27T12:10:00Z,00000200,01000000,0003.23,0001.51,0000.99,0000.55,0000.36,0000.23,0001.92,0001.29,0001.10,16.7,23.6,,00.0,0637.1,30.9
2021-03-27T12:11:00Z,00000200,01000000,0002.78,0002.20,0001.19,0000.33,0000.44,0000.09,0001.79,0001.76,0001.04,16.8,23.6,,00.0,0637.1,30.9
2021-03-27T12:12:00Z,00000200,01000000,0002.71,0002.04,0001.15,0000.38,0000.25,0000.18,0001.36,0001.38,0001.41,16.8,23.6,,00.0,0637.1,30.9
2021-03-27T12:13:00Z,00000200,01000000,0002.75,0001.87,0001.03,-000.08,0000.33,-000.11,0001.50,0001.16,0001.28,16.9,23.7,,00.0,0637.1,30.9
2021-03-27T12:14:00Z,00000200,01000000,0002.21,0001.84,0000.93,0000.40,0000.37,0000.14,0001.58,0001.23,0000.74,16.9,23.7,,00.0,0637.1,30.9
2021-03-27T12:15:00Z,00000200,01000000,0002.46,0001.97,0000.96,-000.18,0000.42,0000.27,0001.45,0001.72,0001.27,17.0,23.7,,00.0,0637.1,30.9
2021-03-27T12:16:00Z,00000200,01000000,0003.40,0001.76,0001.11,0000.27,0000.28,0000.25,0001.45,0001.20,0001.02,17.0,23.7,,00.0,0637.1,30.9
2021-03-27T12:17:00Z,00000200,01000000,0002.53,0001.81,0001.17,0000.33,0000.26,0000.46,0001.52,0001.23,0001.14,16.9,23.7,,00.0,0637.1,30.9
2021-03-27T12:18:00Z,00000200,01000000,0002.66,0002.03,0001.22,0000.62,0000.31,0000.23,0001.36,0001.46,0000.84,16.8,23.7,,00.0,0637.1,30.9
2021-03-27T12:19:00Z,00000200,01000000,0002.79,0002.11,0001.07,0000.36,0000.50,-000.04,0001.48,0001.61,0001.45,16.8,23.6,,00.0,0637.1,30.9
2021-03-27T12:20:00Z,00000200,01000000,0002.89,0002.01,0001.02,0000.43,0000.33,0000.13,0001.87,0001.59,0000.96,16.7,23.6,,00.0,0637.1,30.9
2021-03-27T12:21:00Z,00000200,01000000,0002.74,0001.52,0000.95,0000.24,0000.22,0000.33,0001.52,0001.34,0001.16,16.8,23.6,,00.0,0637.1,30.9
2021-03-27T12:22:00Z,00000200,01000000,0003.06,0001.78,0001.16,0000.67,0000.25,0000.02,0001.25,0001.52,0001.38,16.8,23.6,,00.0,0637.1,30.9
2021-03-27T12:23:00Z,00000200,01000000,0002.77,0001.98,0000.90,-000.39,0000.35,0000.31,0001.97,0001.41,0001.34,16.8,23.6,,00.0,0637.1,30.9
2021-03-27T12:24:00Z,00000200,01000000,0003.71,0001.79,0001.16,0000.51,0000.23,0000.32,0001.46,0001.08,0000.77,16.9,23.7,,00.0,0637.2,30.9
2021-03-27T12:25:00Z,00000200,01000000,0002.80,0002.05,0000.91,0000.13,0000.33,0000.14,0001.21,0001.53,0001.08,16.9,23.7,,00.0,0637.2,30.9
2021-03-27T12:26:00Z,00000200,01000000,0003.01,0001.83,0000.98,0000.33,0000.33,0000.08,0001.63,0001.72,0000.83,16.9,23.6,,00.0,0637.2,30.9
2021-03-27T12:27:00Z,00000200,01000000,0002.87,0001.92,0000.95,0000.09,0000.49,0000.23,0001.76,0001.55,0001.72,16.8,23.6,,00.0,0637.2,30.9
2021-03-27T12:28:00Z,00000200,01000000,0002.76,0001.81,0001.02,-000.47,0000.10,0000.11,0002.26,0001.50,0001.34,16.7,23.6,,00.0,0637.2,30.9
2021-03-27T12:29:00Z,00000200,01000000,0002.80,0001.86,0000.92,0000.22,0000.35,0000.07,0001.47,0001.67,0001.11,16.6,23.6,,00.0,0637.2,30.8
2021-03-27T12:30:00Z,00000200,01000000,0003.00,0001.89,0001.02,-000.11,0000.22,0000.18,0001.91,0002.10,0001.21,16.6,23.6,,00.0,0637.2,30.8
2021-03-27T12:31:00Z,00000200,01000000,0002.61,0001.75,0000.94,0000.23,0000.37,-000.03,0002.02,0001.48,0001.74,16.5,23.5,,00.0,0637.2,30.8
2021-03-27T12:32:00Z,00000200,01000000,0002.79,0001.89,0001.34,0000.28,0000.36,0000.18,0001.52,0001.43,0000.91,16.5,23.5,,00.0,0637.2,30.8
2021-03-27T12:33:00Z,00000200,01000000,0002.79,0001.74,0001.07,0000.16,0000.04,0000.20,0001.48,0001.32,0001.05,16.4,23.4,,00.0,0637.2,30.8
2021-03-27T12:34:00Z,00000200,01000000,0002.39,0002.01,0001.45,-000.04,0000.38,0000.25,0001.33,0000.95,0000.76,16.4,23.4,,00.0,0637.2,30.8
2021-03-27T12:35:00Z,00000200,01000000,0002.82,0001.75,0001.21,0000.47,0000.29,0000.08,0001.27,0001.58,0001.72,16.3,23.3,,00.0,0637.2,30.8
2021-03-27T12:36:00Z,00000200,01000000,0003.20,0001.79,0001.23,0000.70,0000.29,0000.56,0001.41,0001.27,0000.90,16.4,23.3,,00.0,0637.2,30.8
2021-03-27T12:37:00Z,00000200,01000000,0002.65,0002.24,0000.97,-000.09,0000.58,0000.14,0001.42,0001.09,0000.89,16.4,23.3,,00.0,0637.2,30.9
2021-03-27T12:38:00Z,00000200,01000000,0002.77,0001.84,0000.97,0000.35,0000.34,0000.23,0001.95,0001.66,0000.92,16.5,23.4,,00.0,0637.2,30.9
2021-03-27T12:39:00Z,00000200,01000000,0002.99,0001.75,0001.11,0000.29,0000.45,0000.14,0000.80,0001.42,0001.17,16.5,23.4,,00.0,0637.2,30.9
2021-03-27T12:40:00Z,00000200,01000000,0002.76,0002.12,0001.14,0000.50,0000.35,0000.59,0001.89,0001.33,0001.22,16.6,23.4,,00.0,0637.3,30.9
2021-03-27T12:41:00Z,00000200,01000000,0002.69,0002.04,0000.95,0000.08,0000.35,0000.13,0001.37,0001.63,0000.98,16.7,23.5,,00.0,0637.3,30.9
2021-03-27T12:42:00Z,00000200,01000000,0003.13,0002.24,0000.76,-000.05,0000.35,-000.01,0001.77,0001.24,0000.87,16.7,23.5,,00.0,0637.3,30.9
2021-03-27T12:43:00Z,00000200,01000000,0003.29,0001.84,0001.08,0000.62,0000.38,0000.33,0001.46,0001.37,0001.54,16.8,23.5,,00.0,0637.3,30.9
2021-03-27T12:44:00Z,00000200,01000000,0002.90,0001.62,0001.14,0000.15,0000.27,0000.15,0001.32,0001.21,0000.90,16.8,23.5,,00.0,0637.3,30.9
2021-03-27T12:45:00Z,00000200,01000000,0003.07,0001.92,0001.17,0000.16,0000.48,0000.33,0001.92,0001.37,0001.35,16.7,23.5,,00.0,0637.2,30.8
2021-03-27T12:46:00Z,00000200,01000000,0002.97,0002.03,0001.15,0000.28,0000.38,0000.29,0001.60,0001.75,0000.88,16.6,23.5,,00.0,0637.2,30.8
2021-03-27T12:47:00Z,00000200,01000000,0002.73,0001.82,0001.01,0000.61,0000.27,0000.38,0001.20,0001.25,0000.82,16.6,23.4,,00.0,0637.2,30.8
2021-03-27T12:48:00Z,00000200,01000000,0002.31,0001.64,0001.04,0000.10,0000.22,0000.21,0001.69,0001.69,0001.20,16.5,23.4,,00.0,0637.2,30.8
2021-03-27T12:49:00Z,00000200,01000000,0002.75,0001.63,0000.88,0000.46,0000.26,0000.24,0002.02,0001.61,0001.57,16.4,23.3,,00.0,0637.2,30.8
2021-03-27T12:50:00Z,00000200,01000000,0002.95,0001.80,0000.91,0000.41,0000.39,0000.16,0001.41,0001.75,0001.37,16.4,23.3,,00.0,0637.2,30.8
2021-03-27T12:51:00Z,00000200,01000000,0002.27,0001.94,0001.22,-000.02,0000.29,0000.27,0001.98,0001.61,0001.30,16.4,23.3,,00.0,0637.2,30.8
2021-03-27T12:52:00Z,00000200,01000000,0002.73,0001.80,0001.07,-000.07,0000.46,0000.31,0001.28,0001.19,0001.20,16.4,23.3,,00.0,0637.1,30.9
2021-03-27T12:53:00Z,00000200,01000000,0002.46,0001.55,0000.88,0000.48,0000.27,0000.11,0002.18,0001.98,0001.23,16.5,23.3,,00.0,0637.1,30.9
2021-03-27T12:54:00Z,00000200,01000000,0003.18,0001.78,0001.29,0000.26,0000.26,0000.46,0001.53,0001.57,0001.38,16.5,23.3,,00.0,0637.1,30.9
2021-03-27T12:55:00Z,00000200,01000000,0003.30,0002.03,0001.07,0000.39,0000.34,0000.38,0001.34,0001.24,0000.96,16.6,23.4,,00.0,0637.1,30.9
2021-03-27T12:56:00Z,00000200,01000000,0003.08,0001.84,0000.92,-000.14,0000.29,-000.00,0001.91,0001.49,0001.45,16.6,23.4,,00.0,0637.1,30.9
2021-03-27T12:57:00Z,00000200,41000000,,,,,,,0000.39,0000.64,0000.22,16.7,23.5,,00.0,0637.1,30.9
2021-03-27T12:58:00Z,00000200,61000000,,,,,,,-000.01,-000.03,0000.15,16.5,23.7,,00.0,0636.2,30.9
2021-03-27T12:59:00Z,00000200,21000000,,,,,,,-000.41,-000.32,-000.49,16.5,23.8,,00.0,0636.2,30.9
